| time (UTC) | temp F | wind direction | speed MPH | gust MPH | rain 1hr in | rain 24hr in | rain mn in | humidity % | barometer mb |
| 20260502152220 | 44 | 300 | 1.0 | 8.0 | 0.00 | 0.00 | 0.00 | 51 | 1018.2 |
| 20260502151212 | 45 | 295 | 2.0 | 6.0 | 0.00 | 0.00 | 0.00 | 51 | 1018.2 |
| 20260502150215 | 44 | 288 | 4.0 | 8.0 | 0.00 | 0.01 | 0.00 | 48 | 1018.2 |
| 20260502130227 | 40 | 347 | 1.0 | 6.0 | 0.00 | 0.01 | 0.00 | 76 | 1018.3 |
| 20260502123220 | 39 | 94 | 0.0 | 3.0 | 0.00 | 0.01 | 0.00 | 83 | 1018.3 |
| 20260502122210 | 38 | 266 | 1.0 | 5.0 | 0.00 | 0.01 | 0.00 | 83 | 1018.2 |
| 20260502121225 | 38 | 276 | 0.0 | 2.0 | 0.00 | 0.01 | 0.00 | 86 | 1018.2 |
| 20260502120210 | 37 | 295 | 1.0 | 3.0 | 0.00 | 0.01 | 0.00 | 88 | 1018.2 |
| 20260502115222 | 35 | 273 | 0.0 | 2.0 | 0.00 | 0.01 | 0.00 | 92 | 1018.2 |
| 20260502114214 | 33 | 288 | 0.0 | 1.0 | 0.00 | 0.01 | 0.00 | 93 | 1018.1 |
| 20260502113228 | 32 | 139 | 0.0 | 0.0 | 0.00 | 0.01 | 0.00 | 92 | 1018.1 |
| 20260502112219 | 0 | 0.0 | 0.0 | 0.00 | 0.01 | 0.00 | 1017.9 | ||
| 20260502111228 | 0 | 0.0 | 0.0 | 0.00 | 0.01 | 0.00 | 1017.7 | ||
| 20260502110233 | 0 | 0.0 | 0.0 | 0.00 | 0.01 | 0.00 | 1017.7 | ||
| 20260502103220 | 0 | 0.0 | 0.0 | 0.00 | 0.01 | 0.00 | 1017.7 | ||
| 20260502102212 | 0 | 0.0 | 0.0 | 0.00 | 0.01 | 0.00 | 1017.6 | ||
| 20260502101301 | 0 | 0.0 | 0.0 | 0.00 | 0.01 | 0.00 | 1017.6 | ||
| 20260502100217 | 0 | 0.0 | 0.0 | 0.00 | 0.01 | 0.00 | 1017.6 | ||
| 20260502091229 | 35 | 139 | 0.0 | 0.0 | 0.00 | 0.01 | 0.00 | 86 | 1017.4 |
| 20260502090213 | 35 | 139 | 0.0 | 0.0 | 0.00 | 0.01 | 0.00 | 85 | 1017.3 |
| 20260502071217 | 37 | 137 | 0.0 | 1.0 | 0.00 | 0.01 | 0.00 | 83 | 1017.0 |
| 20260502070223 | 37 | 137 | 0.0 | 0.0 | 0.00 | 0.01 | 0.00 | 83 | 1017.1 |
| 20260502065217 | 37 | 137 | 0.0 | 0.0 | 0.00 | 0.01 | 0.00 | 83 | 1017.2 |
| 20260502064227 | 37 | 114 | 0.0 | 1.0 | 0.00 | 0.01 | 0.00 | 82 | 1017.3 |
| 20260502063219 | 38 | 60 | 0.0 | 1.0 | 0.00 | 0.01 | 0.00 | 83 | 1017.4 |
| 20260502062214 | 38 | 61 | 0.0 | 1.0 | 0.00 | 0.01 | 0.00 | 82 | 1017.4 |
| 20260502061224 | 38 | 59 | 0.0 | 1.0 | 0.00 | 0.01 | 0.00 | 82 | 1017.5 |
| 20260502060209 | 38 | 68 | 0.0 | 0.0 | 0.00 | 0.01 | 0.00 | 82 | 1017.5 |
| 20260502055220 | 38 | 68 | 0.0 | 1.0 | 0.00 | 0.01 | 0.00 | 81 | 1017.5 |
| 20260502054214 | 38 | 67 | 0.0 | 1.0 | 0.00 | 0.01 | 0.00 | 81 | 1017.6 |
| 20260502053226 | 38 | 94 | 0.0 | 1.0 | 0.00 | 0.01 | 0.00 | 79 | 1017.5 |
| 20260502052215 | 38 | 94 | 0.0 | 1.0 | 0.00 | 0.01 | 0.00 | 79 | 1017.6 |
| 20260502051246 | 38 | 94 | 0.0 | 1.0 | 0.00 | 0.01 | 0.00 | 78 | 1017.5 |
| 20260502050213 | 39 | 94 | 0.0 | 1.0 | 0.00 | 0.01 | 0.00 | 78 | 1017.4 |
| 20260502045224 | 39 | 113 | 0.0 | 1.0 | 0.00 | 0.01 | 0.00 | 77 | 1017.3 |
| 20260502044214 | 39 | 113 | 0.0 | 1.0 | 0.00 | 0.01 | 0.00 | 76 | 1017.2 |
| 20260502043226 | 39 | 135 | 0.0 | 3.0 | 0.00 | 0.01 | 0.00 | 76 | 1017.1 |
| 20260502042221 | 39 | 101 | 0.0 | 4.0 | 0.00 | 0.01 | 0.00 | 76 | 1017.2 |
| 20260502041211 | 39 | 114 | 0.0 | 4.0 | 0.00 | 0.01 | 0.00 | 75 | 1017.1 |
| 20260502040216 | 40 | 112 | 0.0 | 1.0 | 0.00 | 0.01 | 0.01 | 74 | 1017.1 |
| 20260502035248 | 40 | 105 | 0.0 | 2.0 | 0.00 | 0.01 | 0.01 | 73 | 1017.1 |
| 20260502034221 | 40 | 108 | 0.0 | 3.0 | 0.00 | 0.01 | 0.01 | 72 | 1016.9 |
| 20260502033212 | 41 | 131 | 0.0 | 4.0 | 0.00 | 0.01 | 0.01 | 72 | 1016.9 |
| 20260502032224 | 42 | 72 | 1.0 | 5.0 | 0.00 | 0.01 | 0.01 | 70 | 1016.7 |
| 20260502031219 | 43 | 66 | 1.0 | 6.0 | 0.00 | 0.01 | 0.01 | 64 | 1016.6 |
| 20260502030221 | 43 | 322 | 1.0 | 5.0 | 0.00 | 0.01 | 0.01 | 63 | 1016.5 |
| 20260502025232 | 43 | 295 | 0.0 | 3.0 | 0.00 | 0.01 | 0.01 | 63 | 1016.4 |
| 20260502024221 | 43 | 315 | 2.0 | 7.0 | 0.00 | 0.01 | 0.01 | 63 | 1016.5 |
| 20260502023216 | 43 | 302 | 1.0 | 5.0 | 0.00 | 0.01 | 0.01 | 62 | 1016.5 |
| 20260502022248 | 44 | 276 | 1.0 | 6.0 | 0.00 | 0.01 | 0.01 | 62 | 1016.5 |
| 20260502021218 | 44 | 288 | 0.0 | 5.0 | 0.00 | 0.01 | 0.01 | 64 | 1016.3 |
| 20260502020223 | 44 | 313 | 1.0 | 6.0 | 0.00 | 0.01 | 0.01 | 64 | 1016.3 |
| 20260502015219 | 44 | 331 | 0.0 | 2.0 | 0.00 | 0.01 | 0.01 | 64 | 1016.2 |
| 20260502014249 | 44 | 283 | 0.0 | 4.0 | 0.00 | 0.01 | 0.01 | 64 | 1016.1 |
| 20260502013221 | 44 | 288 | 1.0 | 4.0 | 0.00 | 0.01 | 0.01 | 63 | 1016.1 |
| 20260502012211 | 44 | 301 | 1.0 | 4.0 | 0.00 | 0.01 | 0.01 | 63 | 1016.0 |
| 20260502011227 | 44 | 263 | 0.0 | 2.0 | 0.00 | 0.01 | 0.01 | 63 | 1015.9 |
| 20260502010230 | 44 | 293 | 1.0 | 5.0 | 0.00 | 0.01 | 0.01 | 62 | 1015.8 |
| 20260502005221 | 44 | 307 | 1.0 | 6.0 | 0.00 | 0.01 | 0.01 | 63 | 1015.8 |
| 20260502004213 | 44 | 285 | 1.0 | 7.0 | 0.00 | 0.01 | 0.01 | 63 | 1015.7 |
| 20260502003243 | 44 | 300 | 1.0 | 7.0 | 0.00 | 0.01 | 0.01 | 63 | 1015.6 |
| 20260502002216 | 45 | 360 | 2.0 | 5.0 | 0.00 | 0.01 | 0.01 | 63 | 1015.6 |
| 20260502001249 | 45 | 300 | 2.0 | 5.0 | 0.00 | 0.01 | 0.01 | 63 | 1015.5 |
| 20260502000212 | 45 | 297 | 1.0 | 3.0 | 0.00 | 0.01 | 0.01 | 64 | 1015.4 |
| 20260501235223 | 45 | 349 | 1.0 | 5.0 | 0.00 | 0.01 | 0.01 | 63 | 1015.4 |
| 20260501234220 | 45 | 262 | 0.0 | 4.0 | 0.00 | 0.01 | 0.01 | 63 | 1015.3 |
| 20260501233209 | 45 | 336 | 0.0 | 7.0 | 0.00 | 0.01 | 0.01 | 63 | 1015.1 |
| 20260501232222 | 46 | 331 | 2.0 | 5.0 | 0.00 | 0.01 | 0.01 | 62 | 1015.2 |
| 20260501231237 | 46 | 140 | 1.0 | 7.0 | 0.00 | 0.01 | 0.01 | 62 | 1015.1 |
| 20260501230219 | 46 | 6 | 1.0 | 6.0 | 0.00 | 0.01 | 0.01 | 64 | 1015.2 |
| 20260501225210 | 46 | 321 | 0.0 | 9.0 | 0.00 | 0.01 | 0.01 | 64 | 1015.1 |
| 20260501224241 | 46 | 349 | 1.0 | 3.0 | 0.00 | 0.01 | 0.01 | 60 | 1015.1 |
| 20260501223217 | 47 | 259 | 2.0 | 8.0 | 0.00 | 0.01 | 0.01 | 60 | 1015.1 |
| 20260501222226 | 47 | 289 | 1.0 | 5.0 | 0.00 | 0.01 | 0.01 | 61 | 1015.0 |
| 20260501221218 | 48 | 313 | 3.0 | 10.0 | 0.00 | 0.01 | 0.01 | 58 | 1014.9 |
| 20260501220222 | 48 | 25 | 4.0 | 6.0 | 0.00 | 0.01 | 0.01 | 56 | 1014.7 |
| 20260501215216 | 49 | 284 | 1.0 | 5.0 | 0.00 | 0.01 | 0.01 | 56 | 1014.6 |
| 20260501214248 | 49 | 287 | 1.0 | 7.0 | 0.00 | 0.01 | 0.01 | 56 | 1014.5 |
| 20260501213218 | 48 | 302 | 2.0 | 8.0 | 0.00 | 0.01 | 0.01 | 55 | 1014.5 |
| 20260501212228 | 48 | 295 | 4.0 | 7.0 | 0.00 | 0.01 | 0.01 | 54 | 1014.5 |
| 20260501211245 | 48 | 312 | 1.0 | 9.0 | 0.00 | 0.01 | 0.01 | 56 | 1014.3 |
| 20260501210249 | 49 | 302 | 3.0 | 8.0 | 0.00 | 0.01 | 0.01 | 54 | 1014.3 |
| 20260501205217 | 49 | 296 | 0.0 | 6.0 | 0.00 | 0.01 | 0.01 | 56 | 1014.2 |
| 20260501204249 | 49 | 338 | 1.0 | 3.0 | 0.00 | 0.01 | 0.01 | 55 | 1014.3 |
| 20260501203218 | 50 | 294 | 1.0 | 5.0 | 0.00 | 0.01 | 0.01 | 55 | 1014.2 |
| 20260501202213 | 49 | 333 | 1.0 | 5.0 | 0.00 | 0.01 | 0.01 | 57 | 1014.3 |
| 20260501201224 | 48 | 11 | 1.0 | 7.0 | 0.00 | 0.01 | 0.01 | 56 | 1014.3 |
| 20260501200228 | 48 | 300 | 1.0 | 9.0 | 0.00 | 0.01 | 0.01 | 56 | 1014.2 |
| 20260501195240 | 49 | 354 | 0.0 | 6.0 | 0.00 | 0.01 | 0.01 | 55 | 1014.2 |
| 20260501194214 | 50 | 276 | 2.0 | 5.0 | 0.00 | 0.01 | 0.01 | 55 | 1014.1 |
| 20260501193245 | 50 | 302 | 1.0 | 5.0 | 0.00 | 0.01 | 0.01 | 54 | 1014.0 |
| 20260501192215 | 50 | 260 | 0.0 | 5.0 | 0.00 | 0.01 | 0.01 | 56 | 1014.0 |
| 20260501191212 | 49 | 132 | 1.0 | 5.0 | 0.00 | 0.01 | 0.01 | 57 | 1014.0 |
| 20260501190217 | 49 | 291 | 2.0 | 8.0 | 0.00 | 0.01 | 0.01 | 53 | 1014.0 |
| 20260501185249 | 50 | 329 | 0.0 | 5.0 | 0.00 | 0.01 | 0.01 | 54 | 1013.8 |
| 20260501184219 | 50 | 7 | 1.0 | 5.0 | 0.00 | 0.01 | 0.01 | 51 | 1013.7 |
| 20260501183213 | 50 | 63 | 1.0 | 6.0 | 0.00 | 0.01 | 0.01 | 54 | 1013.5 |
| 20260501182246 | 50 | 62 | 0.0 | 7.0 | 0.00 | 0.01 | 0.01 | 53 | 1013.6 |
| 20260501181218 | 50 | 127 | 0.0 | 5.0 | 0.00 | 0.01 | 0.01 | 52 | 1013.5 |
| 20260501180223 | 50 | 320 | 2.0 | 6.0 | 0.00 | 0.01 | 0.01 | 52 | 1013.6 |
| 20260501175221 | 50 | 269 | 0.0 | 3.0 | 0.00 | 0.01 | 0.01 | 55 | 1013.5 |
| 20260501174235 | 49 | 295 | 0.0 | 3.0 | 0.00 | 0.01 | 0.01 | 55 | 1013.5 |
| 20260501173227 | 49 | 329 | 1.0 | 5.0 | 0.00 | 0.01 | 0.01 | 56 | 1013.6 |
| 20260501172220 | 49 | 318 | 0.0 | 5.0 | 0.00 | 0.01 | 0.01 | 58 | 1013.7 |
| 20260501171220 | 50 | 321 | 0.0 | 5.0 | 0.00 | 0.01 | 0.01 | 58 | 1013.7 |
| 20260501170245 | 50 | 332 | 0.0 | 5.0 | 0.00 | 0.01 | 0.01 | 59 | 1013.6 |
| 20260501165219 | 49 | 256 | 0.0 | 4.0 | 0.00 | 0.01 | 0.01 | 59 | 1013.6 |
| 20260501164212 | 48 | 296 | 0.0 | 3.0 | 0.00 | 0.01 | 0.01 | 60 | 1013.6 |
| 20260501163209 | 49 | 38 | 1.0 | 6.0 | 0.00 | 0.01 | 0.01 | 60 | 1013.7 |
| 20260501162223 | 50 | 176 | 0.0 | 3.0 | 0.00 | 0.01 | 0.01 | 64 | 1013.7 |
| 20260501161216 | 49 | 91 | 1.0 | 5.0 | 0.00 | 0.01 | 0.01 | 65 | 1013.7 |
| 20260501160223 | 49 | 322 | 1.0 | 5.0 | 0.00 | 0.01 | 0.01 | 65 | 1013.7 |
| 20260501155220 | 49 | 83 | 2.0 | 5.0 | 0.00 | 0.01 | 0.01 | 70 | 1013.8 |